Regional Weather Roundup
Issued by NWS Charleston, SC

Current Version | Previous Version | Graphics & Text | Print | Product List | Glossary On
Versions: 1 2 3 4 5 6 7 8 9 10 11 12 13 14 15 16 17 18 19 20 21 22 23 24 25 26 27 28 29 30 31 32 33 34 35 36 37 38 39 40 41 42 43 44 45 46 47 48 49 50
000
ASUS42 KCHS 220710
RWRCHS

REGIONAL WEATHER ROUNDUP
NATIONAL WEATHER SERVICE CHARLESTON SC
200 AM EST MON DEC 22 2014

NOTE: "FAIR" INDICATES FEW OR NO CLOUDS BELOW 12,000 FEET WITH NO
SIGNIFICANT WEATHER AND/OR OBSTRUCTIONS TO VISIBILITY.

NOT ALL STATIONS ARE QUALITY CONTROLLED BY THE NATIONAL
WEATHER SERVICE. USE DATA WITH CAUTION...ESPECIALLY
DEWPOINT OBSERVATIONS.

SCZ027-030-031-034>040-042>050-220800-
...SOUTHEAST SOUTH CAROLINA...

CITY           SKY/WX    TMP DP  RH WIND       PRES   REMARKS
N CHARLESTON   LGT RAIN  47  45  93 NE7       30.06F
WATERFRONT PRK NOT AVBL
MOUNT PLEASANT CLOUDY    48  48 100 N5        30.07S FOG
PINOPOLIS        N/A     46  45  93 NE9       29.99F
MONCKS CORNER    N/A     46  45  93 CALM      30.08S FOG
SUMMERVILLE    CLOUDY    46  46 100 N5        30.09S
BEAUFORT MCAS  CLOUDY    48  47  96 N3        30.06S
BEAUFORT ARPT  CLOUDY    48  48 100 NE6       30.06R
HILTON HEAD IS CLOUDY    48  48 100 N7        30.06S FOG
WALTERBORO     CLOUDY    46 N/A N/A NW3       30.09R
ALLENDALE      CLOUDY    46  46 100 VRB5      30.07F FOG

...SOUTHERN MIDLANDS AND PEE DEE...

CITY           SKY/WX    TMP DP  RH WIND       PRES   REMARKS
GEORGETOWN     NOT AVBL
KINGSTREE      NOT AVBL
ORANGEBURG     LGT RAIN  46  43  89 NE6       30.10S FOG
BARNWELL       DRIZZLE   46  46 100 NE8       30.09F
AIKEN          DRIZZLE   45  45 100 NE7       30.12S
MANNING        NOT AVBL
COLUMBIA       LGT RAIN  46  43  89 NE10      30.10F FOG
SUMTER         LGT RAIN  43  41  93 N9        30.10R
FLORENCE       LGT RAIN  43  40  89 NE8       30.11F FOG
MYRTLE BEACH   CLOUDY    46  43  87 N8        30.09R
N MYRTLE BEACH CLOUDY    46  44  93 N5        30.08F

$$

GAZ063-065-086>088-099>101-113>116-118-119-134>141-150-220800-
...SOUTHEAST GEORGIA...

CITY           SKY/WX    TMP DP  RH WIND       PRES   REMARKS
SAVANNAH ARPT  CLOUDY    48  46  93 N3        30.06F
HUNTER AAF     CLOUDY    48  48 100 NE3       30.03F FOG
FORT STEWART   CLOUDY    48  46  93 N5        30.03F
STATESBORO     LGT RAIN  46  46 100 NE3       30.07S
SYLVANIA       DRIZZLE   47  47 100 E6        30.08F
CLAXTON        CLOUDY    46  46 100 NE3       30.06S FOG

...CSRA...CENTRAL AND FAR SOUTHEAST GEORGIA...

CITY           SKY/WX    TMP DP  RH WIND       PRES   REMARKS
THOMSON        CLOUDY    48  48 100 NE5       30.13S
AUGUSTA-BUSH   LGT RAIN  47  46  97 NE6       30.09F FOG
AUGUSTA-DANIEL LGT RAIN  48  47  96 NE7       30.09F FOG
SWAINSBORO     DRIZZLE  N/A N/A N/A E5        30.06F
VIDALIA        LGT RAIN  46  46 100 NE7       30.03F
EASTMAN        CLOUDY    47  47 100 E7        30.06F FOG
HAZLEHURST     DRIZZLE   48  48 100 NW6       30.04F
ALMA           CLOUDY    48  47  96 VRB5      30.01F FOG
WAYCROSS       CLOUDY    53  52  99 E3        30.01F
JESUP          CLOUDY    52  50  93 CALM      30.02F FOG
BAXLEY         DRIZZLE   50  48  93 NE7       30.03S
BRUNSWICK      CLOUDY    52  50  93 CALM      30.04F
SAINT SIMONS   CLOUDY    53  52  96 N5        30.03F

$$

SCZ027-028-034-036>038-045-046-048>050-GAZ119-141-220800-
...LAKE AND SUPPLEMENTAL COASTAL OBSERVATIONS...

STATION/POSITION TIME  TEMP    WIND        PRES    WAVE   SWELL
                       AIR SEA DIR/SP/G            HT/PER HT/PER/DIR
                 (UTC) (F)     (DEG/KT/KT) (MB)    (FT/S) (FT/S/D)
UPR LAKE MARION  NOT AVBL
WINYAH BAY       0600   46      50/ 10     1018.0S
LAKE MURRAY      0600   45      30/  3/  7 1019.3F
ACE BASIN NERRS  0600   47     360/  1     1018.0S
FORT PULASKI     0700   50 55   40/  7/ 10 1017.7F
SAPELO ISLAND    0600   51      10/  7     1017.0F

$$

ANZ835-935-AMZ111-154-330-350-352-354-370-450-454-472-220800-
...C-MAN AND BUOY OBSERVATIONS...

STATION/POSITION TIME  TEMP    WIND        PRES    WAVE   SWELL
                       AIR SEA DIR/SP/G            HT/PER HT/PER/DIR
                 (UTC) (F)     (DEG/KT/KT) (MB)    (FT/S) (FT/S/D)
BUOY 41004       0700   71 72   70/ 12/ 14 1016.0R   8/ 7   7/ 7
BUOY 41008       0700   57 58   30/ 14/ 16 1016.7F   5/ 7   3/ 80/ 7
FOLLY BEACH CMAN 0600   49      30/ 15/ 17 1018.7F
CAPERS NEARSHORE 0600   50      60/ 16/ 17   N/A
FRIPP NEARSHORE  NOT AVBL


STATION/POSITION TIME  TEMP    WIND        PRES    WAVE   SWELL
                       AIR SEA DIR/SP/G            HT/PER HT/PER/DIR
                 (UTC) (F)     (DEG/KT/KT) (MB)    (FT/S) (FT/S/D)
5E ST. MARYS GA  0700      60                N/A     4/ 6
FRYING PAN BUOY  0700   61 69   60/ 21/ 25 1017.2F   8/ 7
BUOY 41025       0700   62                 1020.0F
CAPE LOOKOUT NC  0600   47      10/ 14/ 18 1020.2F
BUOY 41002       0553   71 72  140/  8/  8 1018.5F   6/ 7   5/ 60/ 7
BUOY 41010       0700   75 77  180/ 12/ 14 1017.2F   3/ 7   3/360/ 7
ST AUGUSTINE FL  0700   63     210/  6/  8 1017.6F


$$



USA.gov is the U.S. government's official web portal to all federal, state and local government web resources and services.